Timeline UpdatesTrip UpdatesNews PostsPvt Posts♥♥Travel TipsAdmin PostsConv PostsFollowed PostsChat RequestsBlog PostsPNR Posts

Disclaimer
Search
 
 
Mon Oct 20, 2014 18:32:25 ISTHomeTrainsΣChainsAtlasPNRForumGalleryNewsFAQTripsMembersLoginFeedback
No Recent News for this Train
Other Trains in the News **new
Latest...
T.No. 57640 Guntur-Tirupati Passenger With effect from 12th May, 2012, this Passenger train will depart Guntur at 04:45 hrs instead of 01:00 hr. and arrive Tirupati at 14:50 hrs instead of11:55 hrs
Mon May 12, 2014 (05:38PM)
⇐ Return Journey: Train# 57639

57640/Guntur - Tirupati Passanger (UnReserved)

Time-Table HAS CHANGED.
Sep 05 2014 (9:50AM)
Change Departure Station:
Change Arrival Station:
Post a Train Travel TipPost a Train Travel Tip **new
Post a Comment/Question/Picture/VideoPost a Comment/Question/Picture/Video
Pantry/Catering
✕ NO Pantry Car
✕ NO Catering
RSA - Rake Sharing
57623-57640-57639-57624
Rake/Coach Composition
10 general second class and two second class luggage-cum-brake vans from 1st Dec
Loco
WDM3 of GTL Shed
News    PNR    Forum    Time-Table    Availability    Fare Chart    Map    Arr/Dep History    Trips    Gallery    ΣChains    X/O    Timeline    
Travel Time: 5h 49m    29 halts    Distance: 224 km    Avg Speed: 38 km/hr
Type: Passenger
Zone: SCR/South Central
Departs @ 02:15 (Avg 1h 3m late)
Platform# ???
SMTWTFS
Tenali Junction/TEL 
Arrives @ 08:04 (Avg 1h 24m late)
Platform# 3
SMTWTFS
Nellore/NLR 

29 halts. 33 intermediate Stations between Tenali Junction and Nellore

Show ALL intermediate Stations  Show Old Time-Table

#TrkCodeStation NameX/OArrivesAvgDepartsAvgHaltPFDay#KmSpeedElevZoneAddress
1/--/GNTGuntur Junction (7)  -04:45 01:00+4431-25.66337mSCRGuntur, Andhra Pradesh
2/--/VJAVejandla (1)  05:00 01:11+1:2405:01 01:12+1:261m11-14.06822mSCRPhone Number : 0863-2534861, Andhra Pradesh
3/--/SJLSangam Jagarlamudi (2)  05:07 01:17+1:2805:08 01:18+1:281m--1-8.41216mSCRPhone Number : 08644-258120, Andhra Pradesh
4/--/TELTenali Junction (5)»XO  05:35 02:00+5405:37 02:15+1:032 15m--10.06916mSCRTel: 08644-227834, Andhra Pradesh
5/==/TSRTsunduru (3)O  05:42 02:25+1:3405:43 02:26+1:351m--111.54312mSCRTsunduru, Andhra Pradesh
6/==/MDKUModukuru (2)X  05:48 02:31-05:49 02:32-1m--115.25910mSCRModukuru, Andhra Pradesh
7/==/NDONidubrolu (3)O  05:56 02:39+1:2905:57 02:40+1:331m--122.0599mSCRNidubrolu, Andhra Pradesh
8/==/APLAppikatla (2)X  06:09 02:52+1:2706:10 02:53+1:291m--133.8587mSCRGBC Rd, Andhra Pradesh
9/==/BPPBapatla (3)X  06:19 03:02+1:2706:20 03:03+1:311m--142.65110mSCRBapatla, Andhra Pradesh
10/==/SPFStuartpuramXO  06:28 03:11+1:3406:29 03:12+1:341m--149.579mSCRBapatla West Rural, Andhra Pradesh
11/==/CLXChirala (4)XO  06:35 04:19+1:1706:36 04:20+1:221m--157.7328mSCRChirala, Andhra Pradesh
12/==/JAQJandrapeta (2)  06:41 04:26-06:42 04:27-1m--160.9569mSCRChirala, Andhra Pradesh
13/==/VTMVetapalem (3)  06:49 04:32+1:2606:50 04:33+1:321m--165.6538mSCRVetapalem, Andhra Pradesh
14/==/KPLLKottapandillapalli (2)  06:55 04:37-06:56 04:38-1m--169.1428mSCRNH 214A, Andhra Pradesh
15/==/KVDUKadavakuduru (2)X  07:05 04:44-07:06 04:45-1m--173.3408mSCRKadavakuduru, Andhra Pradesh
16/==/CJMChinnaganjam (3)XO  07:09 04:52+1:3107:10 04:53+1:311m--178.0499mSCRChinna Ganjam, Andhra Pradesh
17/==/UGDUppugunduru (2)  07:23 05:01+1:2907:24 05:02+1:321m--184.5525mSCRUppugundur Machavaram Rd, Andhra Pradesh
18/==/RPRLRaparla Halt (2)  07:30 05:07-07:31 05:08-1m--188.8399mSCRNH 214A, Andhra Pradesh
19/==/ANBAmmanabrolu (3)  07:45 05:13+1:2907:46 05:14+1:301m--192.17616mSCRAmmanabrolu, Andhra Pradesh
20/==/KRVKaravadi (2)X  08:00 05:19+1:3408:01 05:20+1:361m--198.42611mSCRKaravadi, Andhra Pradesh
21/==/OGLOngole (3)  08:08 05:40+1:1708:10 05:42+1:202m31107.05612mSCROngole, Andhra Pradesh
22/==/SDMSurareddipalem (3)  08:20 05:53+1:3108:21 05:54+1:321m--1117.3559mSCRSurareddy Palem, Andhra Pradesh
23/==/TNRTanguturu (3)X  08:30 06:03+1:3208:31 06:04+1:361m--1125.66410mSCRTanguturu, Andhra Pradesh
24/==/SKMSingarayakonda (2)X  08:40 06:13+1:3008:41 06:14+1:311m21135.36426mSCRSingarayakonda, Andhra Pradesh
25/==/UPDUlavapadu (2)X  08:50 06:23+1:3608:51 06:24+1:381m--1144.97613mSCRUlavapadu, Andhra Pradesh
26/==/TTUTettu (2)  09:01 06:35+5:0109:02 06:36+5:011m--1158.87124mSCRNational Highway 5, Andhra Pradesh
27/==/KVZKavali (4)X  09:16 06:48+1:1309:17 06:49+1:131m21173.07421mSCRKavali, Andhra Pradesh
28/==/SVPMSri Venkateswarapalem (2)  09:26 06:59+3:2609:27 07:00+3:351m--1185.32522mSCRNational Highway 5, Andhra Pradesh
29/==/BTTRBitragunta (2)XO  09:50 07:10+2:1909:51 07:20+2:311 10m21189.52215mSCRBitragunta, Andhra Pradesh
30/==/AXRAlluru RoadXO  10:02 07:38+3:2010:03 07:39+3:221m--1196.0-8mSCRNational Highway 5, Andhra Pradesh
31/==/TMCTalamanchi  10:12 07:40+2:1710:13 07:41+1:521m--1207.57115mSCRNational Highway 5, Andhra Pradesh
32/==/KJJKodavaluru (2)  10:20 07:45+4310:21 07:46+431m--1212.37517mSCRNational Highway 5, Andhra Pradesh
33/==/PGUPadugupadu (3)O  10:34 07:52+2:4310:35 07:53+2:431m31219.82221mSCRKovur, Andhra Pradesh
34/==/NLRNellore (4)•X  11:00 08:04+1:2411:02 08:05+1:242 1m31223.82321mSCRNellore, Andhra Pradesh
35/==/NLSNellore South (2)  11:06 08:10-11:08 08:11-2 1m21225.76422mSCRNellore, Andhra Pradesh
36/==/VDEVedayapalem (2)X  11:15 08:16+3:1211:16 08:17+3:121m21231.17027mSCRNellore, Andhra Pradesh
37/==/VKTVenkatachalam (3)X  11:28 08:25+5:1311:29 08:26+5:131m31240.38226mSCRVenkatachelam, Andhra Pradesh
38/==/MBLManubolu (3)XO  12:05 08:35+2:0612:06 08:36+2:021m31252.71222mSCRManubolu Railway Station, Andhra Pradesh
39/==/GDRGudur Junction (3)X  12:35 09:23+1:3212:37 09:25+1:312m11262.35319mSCRGudur, Andhra Pradesh
40/==/KQAKondagunta (1)  12:47 09:36+2:0012:48 09:37+2:001m11272.05753mSCRNellore, Andhra Pradesh
41/==/VDDVendodu (2)  12:56 09:47+2:0512:57 09:48+2:061m--1281.57455mSCRNellore, Andhra Pradesh
42/==/NDZNidigallu (2)  13:05 09:55+2:1213:06 09:56+2:121m--1290.08055mSCRSiddavaram, Andhra Pradesh
43/==/VKIVenkatagiri (3)  13:12 10:02+2:1513:13 10:03+2:161m21298.04977mSCRNellore District, Andhra Pradesh
44/==/YLKYellakaru (1)  13:22 10:18+2:1613:23 10:19+2:181m11310.35273mSCRCoastal Andhra Region, Andhra Pradesh
45/==/KHTSri Kalahasti (2)  13:40 10:33+2:0913:42 10:34+2:102 1m11322.55268mSCRChittoor District, Andhra Pradesh
46/==/RCGRachagunnariX  13:48 10:42+2:2213:49 10:43+2:221m--1329.43282mSCRRayalaseema Region, Andhra Pradesh
47/==/YPDYerpedu (2)X  13:56 10:55+2:1513:57 10:56+2:191m--1335.83180mSCRChittoor, Andhra Pradesh
48/==/RURenigunta Junction (5)X  14:20 11:15+1:5414:22 11:25+1:522 10m--1345.620113mSCRChittoor District, Andhra Pradesh
49/==/TPTYTirupati Main (5)  14:50 11:55+46---1355.5-150mSCRChittoor Distt, Andhra Pradesh
Scroll to Top
Scroll to Bottom